This demonstration page uses our WeatherBlox Daily Observations layout. Learn more.

Left ArrowRight Arrow

Hourly Observations for May 24, 2021

Temp ( °F °C ) Dew Point ( °F °C ) Humidity (%) Winds ( mph kmh ) Pressure ( in mb ) Visibility ( mi km ) Precip ( " mm )
12:56 am 00:56 Cloudy with Light Rain 69 20.6 64 17.8 84 84 SSW 13 20 30.01 1016 10 16 0.00 0.00
1:10 am 01:10 Cloudy with Light Rain 63 17 59 15 88 88 W 14 22 30.03 1017 9 14 0.02 0.51
1:34 am 01:34 Cloudy with Light Rain 61 16 57 14 88 88 WSW 9 15 30.04 1017 10 16 0.05 1.27
1:56 am 01:56 Cloudy with Light Rain 61 16.1 58 14.4 90 90 Calm 30.03 1017 9 14 0.07 1.78
2:56 am 02:56 Cloudy with Light Rain 60 15.6 58 14.4 93 93 Calm 30.02 1017 10 16 0.06 1.52
3:56 am 03:56 Cloudy with Light Rain 60 15.6 59 15 96 96 ESE 10 17 29.98 1015 6 10 0.15 3.81
4:56 am 04:56 Cloudy with Light Rain 60 15.6 59 15 96 96 SE 13 20 29.96 1015 10 16 0.02 0.51
5:54 am 05:54 Cloudy 61 16 59 15 94 94 SSE 12 19 29.98 1015 10 16 0.00 0.00
5:56 am 05:56 Cloudy 60 15.6 59 15 96 96 SSE 9 15 29.98 1015 10 16 0.00 0.00
6:04 am 06:04 Cloudy 61 16 59 15 94 94 SSE 10 17 29.98 1015 10 16 0.00 0.00
6:40 am 06:40 Cloudy 61 16 59 15 94 94 SE 8 13 29.99 1015 10 16 0.00 0.00
6:48 am 06:48 Cloudy 61 16 59 15 94 94 SSE 10 17 30.00 1016 10 16 0.00 0.00
6:56 am 06:56 Cloudy with Light Rain 60 15.6 59 15 96 96 SSE 9 15 30.00 1016 10 16 0.01 0.25
7:12 am 07:12 Cloudy with Light Rain 61 16 59 15 94 94 SE 9 15 30.00 1016 10 16 0.00 0.00
7:56 am 07:56 Cloudy with Light Rain 60 15.6 59 15 96 96 SE 9 15 30.00 1016 10 16 0.02 0.51
8:27 am 08:27 Cloudy with Light Rain 61 16 61 16 100 100 SSE 10 17 30.01 1016 10 16 0.04 1.02
8:56 am 08:56 Cloudy with Light Rain 61 16.1 60 15.6 97 97 SE 24 39 29.97 1015 8 13 0.08 2.03
9:14 am 09:14 Cloudy with Light Rain 61 16 61 16 100 100 SSE 18 30 29.99 1015 7 11 0.03 0.76
9:56 am 09:56 Mostly Cloudy 62 16.7 61 16.1 96 96 WSW 9 15 30.01 1016 10 16 0.07 1.78
10:35 am 10:35 Cloudy with Light Rain 63 17 61 16 94 94 SSW 5 7 29.98 1015 10 16 0.00 0.00
10:56 am 10:56 Cloudy 63 17.2 61 16.1 93 93 SSW 8 13 30.00 1016 10 16 0.00 0.00
11:56 am 11:56 Cloudy 66 18.9 63 17.2 90 90 S 9 15 29.98 1015 10 16 0.00 0.00
12:11 pm 12:11 Cloudy 66 19 63 17 88 88 S 13 20 29.95 1014 10 16 0.00 0.00
12:56 pm 12:56 Cloudy 66 18.9 62 16.7 87 87 S 16 26 29.97 1015 10 16 0.00 0.00
1:56 pm 13:56 Cloudy 65 18.3 62 16.7 90 90 S 13 20 29.96 1015 10 16 0.00 0.00
2:31 pm 14:31 Cloudy 68 20 63 17 83 83 S 18 30 29.91 1013 10 16 0.00 0.00
2:56 pm 14:56 Cloudy 69 20.6 64 17.8 84 84 S 21 33 29.94 1014 10 16 0.00 0.00
3:13 pm 15:13 Cloudy 70 21 64 18 83 83 S 22 35 29.88 1012 10 16 0.00 0.00
3:35 pm 15:35 Cloudy 68 20 63 17 83 83 S 17 28 29.89 1012 10 16 0.00 0.00
3:56 pm 15:56 Cloudy 67 19.4 63 17.2 87 87 S 16 26 29.93 1013 10 16 0.00 0.00
4:56 pm 16:56 Cloudy 68 20 64 17.8 87 87 SSW 15 24 29.92 1013 10 16 0.00 0.00
5:42 pm 17:42 Cloudy 68 20 64 18 88 88 S 13 20 29.87 1011 10 16 0.00 0.00
5:56 pm 17:56 Cloudy 68 20 64 17.8 87 87 S 9 15 29.91 1013 10 16 0.00 0.00
6:18 pm 18:18 Cloudy 66 19 64 18 94 94 S 14 22 29.87 1012 10 16 0.00 0.00
6:40 pm 18:40 Cloudy 66 19 64 18 94 94 S 12 19 29.86 1011 9 14 0.00 0.00
6:56 pm 18:56 Cloudy 67 19.4 65 18.3 93 93 SSW 6 9 29.91 1013 10 16 0.00 0.00
7:51 pm 19:51 Cloudy 66 19 64 18 94 94 Calm 29.87 1012 10 16 0.00 0.00
7:56 pm 19:56 Cloudy 67 19.4 65 18.3 93 93 SSE 5 7 29.91 1013 10 16 0.00 0.00
8:05 pm 20:05 Cloudy 66 19 64 18 94 94 SE 7 11 29.85 1011 10 16 0.00 0.00
8:16 pm 20:16 Mostly Cloudy with Light Rain 66 19 64 18 94 94 SSE 9 15 29.85 1011 10 16 0.00 0.00
8:40 pm 20:40 Cloudy with Light Rain 68 20 64 18 88 88 SSE 18 30 29.82 1010 10 16 0.00 0.00
8:56 pm 20:56 Cloudy 69 20.6 65 18.3 87 87 SSE 12 19 29.88 1012 10 16 0.00 0.00
9:14 pm 21:14 Cloudy with Nearby Thunderstorms 68 20 64 18 88 88 SE 7 11 29.85 1011 10 16 0.00 0.00
9:49 pm 21:49 Partly Cloudy 68 20 64 18 88 88 SE 8 13 29.83 1010 10 16 0.00 0.00
9:56 pm 21:56 Mostly Clear 67 19.4 64 17.8 91 91 SE 9 15 29.87 1011 10 16 0.00 0.00
10:29 pm 22:29 Mostly Cloudy 66 19 64 18 94 94 SSW 7 11 29.86 1011 10 16 0.00 0.00
10:56 pm 22:56 Cloudy 68 20 62 16.7 81 81 SSW 8 13 29.91 1013 10 16 0.00 0.00
11:32 pm 23:32 Cloudy 66 19 63 17 88 88 S 9 15 29.86 1011 10 16 0.00 0.00
11:56 pm 23:56 Cloudy 66 18.9 64 17.8 93 93 S 9 15 29.90 1012 10 16 0.00 0.00

Powered by AerisWeather